Waarnemingen

Advertentie
Mijn weer
Gilze-Rijen, Nederland (6350): temperatuur & dauwpunt: 14.08.2017 00:00:00 - 20.08.2017 00:00:00 (CEST)Gilze-Rijen, Nederland (6350): temperatuur 5cm: 14.08.2017 00:00:00 - 20.08.2017 00:00:00 (CEST)Gilze-Rijen, Nederland (6350): windsnelheid & windstoten: 14.08.2017 00:00:00 - 20.08.2017 00:00:00 (CEST)Gilze-Rijen, Nederland (6350): windrichting: 14.08.2017 00:00:00 - 20.08.2017 00:00:00 (CEST)Gilze-Rijen, Nederland (6350): luchtdruk: 14.08.2017 00:00:00 - 20.08.2017 00:00:00 (CEST)Gilze-Rijen, Nederland (6350): zicht: 14.08.2017 00:00:00 - 20.08.2017 00:00:00 (CEST)Gilze-Rijen, Nederland (6350): neerslag: 14.08.2017 00:00:00 - 20.08.2017 00:00:00 (CEST)
Datum & Tijd tt [°C] td [°C] tt 5cm [°C] ff [km/u] ff [kn] fx [km/u] fx [kn] dd ppp [hPa] vv [km] rr [mm]
20.08.2017 00:00:00 14,4 10,8 13,2 11 6 22 12 ZW 1019,3 10 0,0
19.08.2017 23:00:00 14,5 10,6 13,1 8 4 18 10 ZW 1019,2 10 0,0
19.08.2017 22:00:00 16,1 10,7 15,3 13 7 22 12 WZW 1019,1 10 0,0
19.08.2017 21:00:00 16,0 11,3 14,9 8 4 14 8 ZZW 1018,7 10 0,0
19.08.2017 20:00:00 17,2 10,8 16,3 13 7 22 12 WZW 1018,3 10 0,0
19.08.2017 19:00:00 18,1 9,5 17,9 22 12 40 21 W 1018,2 10 0,0
19.08.2017 18:00:00 19,0 8,9 19,8 26 14 40 21 W 1018,0 10 0,0
19.08.2017 17:00:00 19,4 11,3 20,6 24 13 40 21 W 1017,6 10 0,0
19.08.2017 16:00:00 18,2 11,4 19,1 21 11 36 19 W 1017,4 10 0,0
19.08.2017 15:00:00 18,0 12,4 19,2 16 9 36 19 W 1017,1 10 0,1
19.08.2017 14:00:00 15,4 13,4 15,1 13 7 25 14 WZW 1016,8 10 1,3
19.08.2017 13:00:00 14,6 13,0 14,8 16 9 43 23 W 1016,6 9 0,8
19.08.2017 12:00:00 17,7 10,0 19,1 21 11 40 21 WZW 1015,8 10 0,0
19.08.2017 11:00:00 16,3 11,9 16,6 18 10 36 19 ZW 1015,4 10 0,0
19.08.2017 10:00:00 15,2 11,9 15,4 16 9 40 21 ZW 1014,9 10 0,0
19.08.2017 09:00:00 14,4 11,6 14,3 22 12 36 19 ZW 1014,5 10 0,0
19.08.2017 08:00:00 13,6 10,8 13,2 21 11 36 19 ZZW 1013,9 10 0,0
19.08.2017 07:00:00 13,1 10,5 12,4 18 10 32 18 ZZW 1013,5 10 0,0
19.08.2017 06:00:00 13,0 10,3 12,1 22 12 32 18 ZZW 1013,1 10 0,0
19.08.2017 05:00:00 12,5 10,5 11,8 21 11 32 18 ZZW 1012,9 10 0,0
19.08.2017 04:00:00 12,5 10,4 11,8 16 9 22 12 ZZW 1013,3 10 0,0
19.08.2017 03:00:00 12,2 10,1 11,3 15 8 22 12 ZZW 1013,4 10 0,0
19.08.2017 02:00:00 12,6 10,3 11,6 13 7 18 10 ZZW 1013,6 10 0,0
19.08.2017 01:00:00 12,9 10,6 11,6 11 6 18 10 ZZW 1013,5 10 0,0
19.08.2017 00:00:00 12,6 10,5 10,7 9 5 14 8 ZZW 1013,4 10 0,0
18.08.2017 23:00:00 13,9 11,0 12,4 8 4 25 14 WZW 1013,3 10 0,0
18.08.2017 22:00:00 15,7 10,0 14,8 15 8 32 18 W 1012,8 10 0,0
18.08.2017 21:00:00 16,8 10,6 15,7 18 10 32 18 WZW 1011,9 10 0,0
18.08.2017 20:00:00 17,3 11,9 16,5 16 9 36 19 ZW 1011,2 10 0,0
18.08.2017 19:00:00 17,0 15,4 16,6 18 10 43 23 Z 1010,9 3,8 5,5
18.08.2017 18:00:00 20,1 13,2 20,2 13 7 29 16 ZW 1010,7 10 0,0
18.08.2017 17:00:00 20,8 14,0 21,4 13 7 32 18 ZZW 1011,0 10 0,0
18.08.2017 16:00:00 19,7 14,7 20,6 11 6 25 14 WZW 1011,2 10 0,0
18.08.2017 15:00:00 18,9 15,3 19,4 15 8 25 14 WZW 1011,8 10 0,0
18.08.2017 14:00:00 18,5 16,7 18,8 9 5 32 18 WZW 1011,7 10 7,2
18.08.2017 13:00:00 17,7 16,3 18,5 21 11 43 23 W 1011,6 10 2,2
18.08.2017 12:00:00 19,7 17,0 19,9 16 9 25 14 ZZW 1011,7 10 0,0
18.08.2017 11:00:00 18,6 16,9 18,9 16 9 25 14 Z 1012,0 10 0,0
18.08.2017 10:00:00 17,8 16,6 17,9 16 9 25 14 Z 1012,3 10 0,0
18.08.2017 09:00:00 17,7 16,2 17,5 16 9 25 14 ZZW 1012,7 10 0,0
18.08.2017 08:00:00 17,4 15,7 17,1 15 8 22 12 Z 1012,7 10 0,0
18.08.2017 07:00:00 16,8 14,7 16,0 9 5 18 10 ZZW 1012,4 10 0,0
18.08.2017 06:00:00 16,1 14,4 15,4 11 6 18 10 ZZW 1012,8 10 0,0
18.08.2017 05:00:00 15,9 14,3 15,0 13 7 18 10 ZZW 1012,8 10 0,0
18.08.2017 04:00:00 16,0 14,4 15,4 11 6 14 8 ZZW 1013,0 10 0,0
18.08.2017 03:00:00 15,9 14,6 15,4 11 6 22 12 ZZW 1013,1 10 0,0
18.08.2017 02:00:00 16,2 14,5 15,1 11 6 18 10 ZZW 1013,7 10 0,0
18.08.2017 01:00:00 16,5 14,7 15,6 11 6 18 10 ZZW 1014,0 10 0,0
18.08.2017 00:00:00 16,9 15,9 15,5 9 5 18 10 ZZW 1013,9 10 0,0
17.08.2017 23:00:00 17,8 16,7 17,0 9 5 18 10 ZZW 1014,0 10 0,0
17.08.2017 22:00:00 18,5 17,2 17,6 13 7 22 12 Z 1014,1 10 0,0
17.08.2017 21:00:00 18,9 17,3 18,1 15 8 25 14 Z 1013,8 10 0,0
17.08.2017 20:00:00 20,2 17,4 19,8 21 11 36 19 ZZW 1013,6 10 0,0
17.08.2017 19:00:00 20,4 17,8 20,3 16 9 32 18 ZZW 1013,7 10 0,0
17.08.2017 18:00:00 19,8 17,5 19,8 22 12 32 18 ZZW 1014,0 10 0,0
17.08.2017 17:00:00 19,6 17,5 19,3 16 9 29 16 Z 1014,1 10 0,0
17.08.2017 16:00:00 18,4 17,2 18,2 18 10 25 14 ZZW 1014,3 6 0,3
17.08.2017 15:00:00 18,4 17,1 18,4 15 8 29 16 ZZW 1014,4 3,8 0,0
17.08.2017 14:00:00 18,6 16,8 18,5 16 9 29 16 ZZW 1014,3 10 0,0
17.08.2017 13:00:00 17,6 16,1 18,0 13 7 22 12 ZW 1014,3 10 0,7
17.08.2017 12:00:00 17,6 16,0 17,5 13 7 40 21 ZZW 1014,2 9 1,8
17.08.2017 11:00:00 18,6 15,8 18,6 13 7 25 14 ZZW 1014,2 10 0,2
17.08.2017 10:00:00 18,7 14,8 18,5 16 9 29 16 Z 1014,3 10 0,0
17.08.2017 09:00:00 17,9 14,5 17,5 15 8 25 14 Z 1014,7 10 0,0
17.08.2017 08:00:00 17,6 14,4 17,0 15 8 22 12 Z 1014,8 10 0,0
17.08.2017 07:00:00 16,5 14,3 15,7 11 6 18 10 ZZO 1014,9 10 0,0
17.08.2017 06:00:00 15,6 13,8 14,7 9 5 14 8 ZZO 1015,4 10 0,0
17.08.2017 05:00:00 15,0 13,2 13,6 11 6 14 8 ZZO 1016,0 10 0,0
17.08.2017 04:00:00 13,7 12,4 10,6 4 2 7 4 Z 1016,9 10 0,0
17.08.2017 03:00:00 13,0 12,1 9,0 4 2 7 4 ZZO 1017,1 10 0,0
17.08.2017 02:00:00 13,1 12,1 9,3 4 2 7 4 Z 1017,8 10 0,0
17.08.2017 01:00:00 12,6 12,0 8,7 2 1 4 2 ZO 1018,1 10 0,0
17.08.2017 00:00:00 13,8 12,8 10,3 2 1 4 2 O 1019,0 10 0,0
16.08.2017 23:00:00 14,9 13,7 11,1 2 1 7 4 Z 1019,1 10 0,0
16.08.2017 22:00:00 16,5 14,3 13,1 4 2 4 2 Z 1019,6 10 0,0
16.08.2017 21:00:00 19,1 14,5 17,1 0 0 7 4 N 1019,6 10 0,0
16.08.2017 20:00:00 21,0 13,5 20,0 5 3 14 8 W 1019,6 10 0,0
16.08.2017 19:00:00 22,2 14,4 22,5 5 3 11 6 W 1019,7 10 0,0
16.08.2017 18:00:00 22,4 14,8 22,8 4 2 11 6 - 1019,7 10 0,0
16.08.2017 17:00:00 22,4 14,7 22,9 8 4 14 8 Z 1019,9 10 0,0
16.08.2017 16:00:00 23,5 14,0 26,2 8 4 22 12 ZW 1020,0 10 0,0
16.08.2017 15:00:00 22,5 14,8 23,6 11 6 22 12 ZW 1020,6 10 0,0
16.08.2017 14:00:00 21,5 14,9 22,4 11 6 22 12 ZZW 1021,1 10 0,0
16.08.2017 13:00:00 21,5 14,8 22,9 13 7 36 19 ZZW 1021,3 10 0,0
16.08.2017 12:00:00 21,1 15,2 22,5 13 7 22 12 ZZW 1021,4 10 0,0
16.08.2017 11:00:00 20,4 15,1 22,3 18 10 25 14 Z 1021,5 10 0,0
16.08.2017 10:00:00 18,8 14,5 19,9 13 7 25 14 Z 1021,5 10 0,0
16.08.2017 09:00:00 16,7 14,6 17,2 9 5 14 8 Z 1021,2 9 0,0
16.08.2017 08:00:00 14,4 13,7 14,0 8 4 11 6 Z 1020,9 3,7 0,0
16.08.2017 07:00:00 12,5 12,3 10,2 4 2 7 4 ZZW 1020,6 2,2 0,0
16.08.2017 06:00:00 13,6 13,3 10,6 5 3 11 6 ZZW 1020,3 1,7 0,0
16.08.2017 05:00:00 13,7 13,3 10,5 5 3 11 6 Z 1020,0 1,7 0,0
16.08.2017 04:00:00 14,3 13,9 11,1 4 2 7 4 ZZW 1019,8 2,5 0,0
16.08.2017 03:00:00 14,0 13,8 12,5 2 1 7 4 ZO 1019,5 5 0,0
16.08.2017 02:00:00 15,1 14,7 12,6 4 2 11 6 OZO 1019,4 2,8 0,0
16.08.2017 01:00:00 16,1 15,4 13,6 8 4 11 6 WNW 1019,3 6 0,0
16.08.2017 00:00:00 16,8 15,6 15,9 11 6 14 8 W 1018,7 9 0,0
15.08.2017 23:00:00 17,4 16,0 16,5 11 6 22 12 WNW 1018,3 10 0,0
15.08.2017 22:00:00 18,6 16,2 18,0 11 6 22 12 W 1017,8 10 0,0
15.08.2017 21:00:00 19,1 16,2 18,6 13 7 18 10 W 1016,6 10 0,0
15.08.2017 20:00:00 20,4 16,9 20,3 9 5 22 12 W 1016,0 10 0,0
15.08.2017 19:00:00 20,5 17,2 20,8 21 11 32 18 NW 1015,1 10 0,0
15.08.2017 18:00:00 20,6 16,9 20,5 16 9 25 14 NNW 1014,7 10 0,0
15.08.2017 17:00:00 22,6 17,1 23,2 11 6 18 10 Z 1014,1 10 0,0
15.08.2017 16:00:00 21,9 17,3 21,7 8 4 25 14 OZO 1013,8 10 0,0
15.08.2017 15:00:00 22,4 16,3 22,3 9 5 18 10 NO 1014,0 10 0,0
15.08.2017 14:00:00 22,8 17,7 23,4 13 7 18 10 N 1013,7 10 0,0
15.08.2017 13:00:00 21,8 16,8 23,4 11 6 29 16 ONO 1013,3 10 0,2
15.08.2017 12:00:00 17,8 15,9 17,9 5 3 22 12 NO 1013,5 10 0,6
15.08.2017 11:00:00 16,8 15,4 16,5 13 7 18 10 ZZW 1014,1 10 1,2
15.08.2017 10:00:00 17,2 14,9 16,9 8 4 11 6 Z 1014,9 10 0,0
15.08.2017 09:00:00 17,3 13,9 16,5 5 3 14 8 Z 1015,3 10 0,0
15.08.2017 08:00:00 16,7 13,9 15,3 4 2 7 4 ZZO 1013,6 10 0,0
15.08.2017 07:00:00 13,8 12,6 10,9 4 2 7 4 - 1013,7 10 0,0
15.08.2017 06:00:00 13,9 12,7 9,0 5 3 7 4 ZZO 1014,1 10 0,0
15.08.2017 05:00:00 14,7 13,4 11,1 5 3 7 4 Z 1014,5 10 0,0
15.08.2017 04:00:00 13,8 13,0 10,6 2 1 7 4 ZO 1014,5 10 0,0
15.08.2017 03:00:00 14,9 13,2 11,0 4 2 4 2 Z 1015,0 10 0,0
15.08.2017 02:00:00 15,4 13,9 11,3 4 2 4 2 Z 1015,2 10 0,0
15.08.2017 01:00:00 16,3 13,9 13,0 4 2 7 4 Z 1015,7 10 0,0
15.08.2017 00:00:00 15,9 13,8 13,2 4 2 14 8 - 1015,9 10 0,0
14.08.2017 23:00:00 16,4 14,1 12,6 2 1 4 2 NW 1016,0 10 0,0
14.08.2017 22:00:00 18,3 14,2 14,2 2 1 7 4 O 1016,2 10 0,0
14.08.2017 21:00:00 20,0 14,4 16,6 0 0 11 6 N 1016,1 10 0,0
14.08.2017 20:00:00 23,8 13,6 22,3 5 3 14 8 ZZO 1016,1 10 0,0
14.08.2017 19:00:00 24,9 12,7 25,5 11 6 18 10 ZO 1016,1 10 0,0
14.08.2017 18:00:00 24,7 12,1 25,5 13 7 25 14 ZO 1016,5 10 0,0
14.08.2017 17:00:00 24,9 11,4 24,4 13 7 25 14 ZZO 1017,0 10 0,0
14.08.2017 16:00:00 24,9 11,9 24,9 11 6 29 16 Z 1017,5 10 0,0
14.08.2017 15:00:00 25,2 11,0 26,1 16 9 29 16 ZZO 1018,0 10 0,0
14.08.2017 14:00:00 23,5 12,0 25,9 15 8 25 14 Z 1018,6 10 0,0
14.08.2017 13:00:00 23,5 13,3 26,6 13 7 25 14 ZO 1019,1 10 0,0
14.08.2017 12:00:00 22,3 14,3 25,4 15 8 22 12 OZO 1019,6 10 0,0
14.08.2017 11:00:00 20,6 14,0 22,4 9 5 14 8 O 1019,9 10 0,0
14.08.2017 10:00:00 19,4 14,2 20,9 8 4 14 8 O 1020,2 10 0,0
14.08.2017 09:00:00 16,9 14,1 17,7 9 5 11 6 O 1020,5 10 0,0
14.08.2017 08:00:00 14,2 12,8 13,9 2 1 7 4 - 1020,4 9 0,0
14.08.2017 07:00:00 12,1 11,6 11,2 4 2 7 4 - 1020,4 9 0,0
14.08.2017 06:00:00 10,9 10,5 8,6 4 2 7 4 - 1020,2 10 0,0
14.08.2017 05:00:00 10,7 10,4 6,8 4 2 4 2 NO 1020,5 10 0,0
14.08.2017 04:00:00 11,0 10,6 6,9 4 2 4 2 O 1020,8 10 0,0
14.08.2017 03:00:00 11,2 10,9 7,6 4 2 4 2 O 1021,1 10 0,0
14.08.2017 02:00:00 12,3 11,9 8,3 2 1 4 2 NO 1021,5 10 0,0
14.08.2017 01:00:00 13,0 12,2 9,3 2 1 4 2 N 1021,8 10 0,0
14.08.2017 00:00:00 14,6 12,6 11,8 0 0 4 2 N 1021,9 10 0,0

tt = temperatuur
td = dauwpunt
tt 5cm = temperatuur 5cm
ff = windsnelheid
fx = windstoten
dd = windrichting
ppp = luchtdruk
vv = zicht
rr = neerslag

Weerstations in de omgeving